< < Back
Terminal Aerodrome Forecast


Current Version              Previous Versions:   1  2  3  4  5  6  7  8  9  

Terminal Aerodrome Forecast

395
FTUS42 KTAE 251120
TAFABY
TAF
KABY 251120Z 2512/2612 09003KT P6SM SCT070
     FM251800 07010G15KT P6SM SCT070
     FM260000 06006KT P6SM SKC=

Latest METAR

571
SAUS70 KWBC 260600 RRA
MTRABY
METAR KABY 260553Z AUTO 00000KT 10SM CLR 23/19 A3011 RMK AO2 SLP194
T02330194 10311 20228 51004


USA.gov is the U.S. government's official web portal to all federal, state and local government web resources and services.